Location: Tamazert
(32.6352°N, 5.2072°W)
Time: 04:21:10
(UTC+00:00)

Vanguard 2 - Pass Details

Date: 03 October 2022
Orbit: 553 x 2933 km, 32.9° (Epoch: 04 December)

Event Time Altitude Azimuth Distance (km) Brightness Sun altitude
Rises 10:42:48 0° 206° (SSW) 3,861 11.4 47.9°
Reaches altitude 10° 10:45:29 10° 195° (SSW) 3,189 11.2 48.2°
Maximum altitude 10:52:30 30° 137° (SE) 2,655 11.9 49.0°
Drops below altitude 10° 11:02:56 10° 83° (E) 4,842 11.9 50.0°
Sets 11:08:08 0° 75° (ENE) 6,210 12.2 50.5°
